Location: Clanezzo
(45.7500°N, 9.6000°E)
Time: 12:55:13
(UTC+00:00)

USA 308 - Pass Details

Date: 03 October 2021
Orbit: 566 x 573 km, 54.0° (Epoch: 23 September)

Event Time Altitude Azimuth Distance (km) Brightness Sun altitude
Rises 17:52:16 0° 302° (WNW) 2,771 7.6 -10.3°
Reaches altitude 10° 17:54:31 10° 301° (WNW) 1,872 6.7 -10.7°
Maximum altitude 17:58:46 70° 218° (SW) 607 3.1 -11.5°
Enters shadow 18:02:44 12° 135° (SE) 1,770 4.9 -12.1°
